Content
SEND FEEDBACK

Daily
Averages
Monthly
Summary
United States of America

PUT IN BAY, OHIO


Home > North America > United States > Ohio
Elevation: 561 feet     Latitude: 41 39N     Longitude: 082 48W

WEATHER
 
SELECT A DAY
Number of Records: 125,373;   Date Range: 12/10/00 - 12/17/14
 
SHARE

PRINT THIS DATA

[ ← Previous Day ]
WEATHER ALMANAC - SEPTEMBER 5, 2013
[ Next Day → ]
[ °C ]   °F
Weather ElementAverageHighLow
Temperature62.5 °F69.8 °F (5:00 pm)52.5 °F (11:00 pm)
Dewpoint51.4 °F60.4 °F (1:00 am)42.1 °F (1:00 pm)
Humidity68.7 %94 % (5:00 am)39 % (2:00 pm)
Barometer30.17 in30.25 in (11:00 pm)30.04 in (1:00 am)
Wind Speed4.6 mph8.1 mph (1:00 pm)
Weather ElementAverage
Wind DirectionSSE (145.4 °)

Weather ElementTotal
Precipitation---
Heating Degree Days3.9 (Base 65)
Growing Degree Days11.2 (Base 50)
Averaged from 26 records on September 5, 2013
WEATHER CONDITIONS BREAKOUT
WIND DIRECTION BREAKOUT
WEATHER BY HOUR - SEPTEMBER 5, 2013
[ °C ]   °F
Local TimeTemperatureDewpointHumidityBarometerVisibilityWind DirectionWind SpeedGust SpeedPrecipitationEventsConditions
1:00 AM63.7 °F60.4 °F89 %30.04 inNorth (10°)1.2 mph
2:00 AM61.0 °F58.0 °F88 %30.06 inNorth (350°)1.2 mph
2:00 AM61.3 °F58.5 °F90 %30.06 inNorth (350°)1.2 mph
3:00 AM61.5 °F59.4 °F93 %30.06 inNorth (360°)1.2 mph
4:00 AM61.7 °F59.7 °F93 %30.08 inNorth (360°)2.3 mph
5:00 AM60.6 °F58.8 °F94 %30.10 inNorth (10°)2.3 mph
6:00 AM60.6 °F58.3 °F92 %30.12 inNorth (360°)3.5 mph
7:00 AM59.7 °F56.3 °F88 %30.14 inNorth (360°)3.5 mph
8:00 AM57.0 °F52.0 °F77 %30.17 inNorth5.8 mph
8:00 AM57.4 °F51.8 °F82 %30.17 inNorth (360°)5.8 mph
9:00 AM58.6 °F49.8 °F72 %30.18 inNorth (360°)4.6 mph
10:00 AM60.8 °F47.3 °F61 %30.19 inNorth (10°)6.9 mph
11:00 AM63.9 °F48.2 °F57 %30.20 inNNE (20°)6.9 mph
12:00 PM65.7 °F47.7 °F52 %30.20 inNorth (360°)4.6 mph
1:00 PM66.7 °F42.1 °F41 %30.21 inNNE (20°)8.1 mph
2:00 PM68.0 °F49.0 °F39 %30.21 inNNE (20°)6.9 mph
2:00 PM67.6 °F48.6 °F50 %30.21 inNNE (20°)6.9 mph
3:00 PM69.3 °F48.6 °F48 %30.20 inNNE (30°)6.9 mph
4:00 PM69.6 °F48.7 °F47 %30.19 inNorth (10°)4.6 mph
5:00 PM69.8 °F48.0 °F46 %30.19 inNE (50°)4.6 mph
6:00 PM68.0 °F49.5 °F51 %30.20 inENE (60°)6.9 mph
7:00 PM65.5 °F48.0 °F53 %30.20 inENE (60°)5.8 mph
8:00 PM61.0 °F48.4 °F63 %30.21 inNE (50°)4.6 mph
9:00 PM57.4 °F48.4 °F72 %30.23 inENE (60°)4.6 mph
10:00 PM55.0 °F46.4 °F73 %30.24 inENE (60°)5.8 mph
11:00 PM52.5 °F45.3 °F76 %30.25 inENE (70°)3.5 mph
Hourly data recorded from CXHA, located miles away from Put In Bay, Ohio







STORIES FROM OUR PARTNERS